Location: ????????
(55.6189°N, 38.3031°E)
Time: 09:06:22
(UTC+00:00)

ADEOS II - Pass Details

Date: 15 November 2019
Orbit: 799 x 801 km, 98.5° (Epoch: 09 December)

Event Time Altitude Azimuth Distance (km) Brightness Sun altitude
Rises 01:56:11 0° 11° (NNE) 3,326 5.5 -25.6°
Reaches altitude 10° 01:58:54 10° 359° (N) 2,391 4.6 -25.3°
Enters shadow 02:00:33 17° 344° (NNW) 1,930 3.9 -25.0°
